ENY9339 TQPF-TLPL

Flight info

Callsign ENY9339
Flight time 0h 48m
Altitude 29000
Route DCT PJM DCT ZPATA UL329 SORRL DCT BNE DCT
Aircraft E75L/M-SDE3GILORVW/S

Departure

Time 2026-04-20 17:40
Airport Clayton J. Lloyd International Airport (TQPF)

Arrival

Time 2026-04-20 18:29
Airport Hewanorra International Airport (TLPL)
Time Latitude Longitude Altitude Speed Heading
2026-04-20 17:25 18.20580 -63.05384 114 ft 0 kts
2026-04-20 17:34 18.20573 -63.05385 114 ft 2 kts 355°
2026-04-20 17:34 18.20558 -63.05377 114 ft 3 kts 313°
2026-04-20 17:35 18.20550 -63.05362 114 ft 0 kts 281°
2026-04-20 17:35 18.20553 -63.05378 114 ft 7 kts 280°
2026-04-20 17:36 18.20542 -63.05421 114 ft 8 kts 203°
2026-04-20 17:36 18.20489 -63.05447 114 ft 8 kts 250°
2026-04-20 17:36 18.20490 -63.05513 114 ft 10 kts 272°
2026-04-20 17:36 18.20494 -63.05619 114 ft 22 kts 272°
2026-04-20 17:37 18.20497 -63.05753 114 ft 19 kts 271°
2026-04-20 17:37 18.20504 -63.05939 114 ft 24 kts 272°
2026-04-20 17:37 18.20509 -63.06071 114 ft 16 kts 275°
2026-04-20 17:37 18.20525 -63.06191 114 ft 20 kts 274°
2026-04-20 17:38 18.20522 -63.06253 114 ft 1 kts 218°
2026-04-20 17:38 18.20513 -63.06254 114 ft 1 kts 166°
2026-04-20 17:38 18.20503 -63.06246 114 ft 1 kts 108°
2026-04-20 17:38 18.20511 -63.06216 114 ft 4 kts 74°
2026-04-20 17:39 18.20514 -63.06198 114 ft 0 kts 91°
2026-04-20 17:40 18.20513 -63.06132 114 ft 40 kts 91°
2026-04-20 17:40 18.20490 -63.05476 130 ft 135 kts 92°
2026-04-20 17:40 18.20429 -63.04307 624 ft 178 kts 94°
2026-04-20 17:40 18.20319 -63.03071 1173 ft 171 kts 97°
2026-04-20 17:41 18.20115 -63.01781 1787 ft 186 kts 101°
2026-04-20 17:41 18.19482 -63.00576 2371 ft 196 kts 131°
2026-04-20 17:41 18.18246 -62.99891 2986 ft 212 kts 162°
2026-04-20 17:41 18.16742 -62.99969 3607 ft 225 kts 191°
2026-04-20 17:42 18.15243 -63.00655 4258 ft 250 kts 208°
2026-04-20 17:42 18.13850 -63.01849 4922 ft 265 kts 220°
2026-04-20 17:42 18.12541 -63.03236 5555 ft 269 kts 224°
2026-04-20 17:42 18.11249 -63.04695 6185 ft 274 kts 225°
2026-04-20 17:43 18.09955 -63.06184 6812 ft 278 kts 225°
2026-04-20 17:43 18.08645 -63.07695 7440 ft 281 kts 225°
2026-04-20 17:43 18.07321 -63.09222 8069 ft 284 kts 225°
2026-04-20 17:43 18.05824 -63.10559 8678 ft 283 kts 208°
2026-04-20 17:44 18.04608 -63.11062 9098 ft 283 kts 192°
2026-04-20 17:44 18.02655 -63.11122 9736 ft 283 kts 169°
2026-04-20 17:44 18.00148 -63.10333 10575 ft 286 kts 156°
2026-04-20 17:44 17.98272 -63.09441 11220 ft 308 kts 153°
2026-04-20 17:45 17.96261 -63.08386 11868 ft 340 kts 152°
2026-04-20 17:45 17.94820 -63.07612 12296 ft 360 kts 152°
2026-04-20 17:45 17.92513 -63.06371 12935 ft 382 kts 152°
2026-04-20 17:45 17.90139 -63.05105 13559 ft 380 kts 153°
2026-04-20 17:46 17.87772 -63.03856 14183 ft 385 kts 153°
2026-04-20 17:46 17.85345 -63.02588 14815 ft 393 kts 153°
2026-04-20 17:46 17.82878 -63.01310 15442 ft 397 kts 153°
2026-04-20 17:46 17.80381 -63.00025 16069 ft 403 kts 154°
2026-04-20 17:47 17.77847 -62.98728 16666 ft 409 kts 154°
2026-04-20 17:47 17.75259 -62.97409 17178 ft 415 kts 154°
2026-04-20 17:47 17.72648 -62.96084 17680 ft 419 kts 154°
2026-04-20 17:47 17.70005 -62.94746 18182 ft 423 kts 154°
2026-04-20 17:48 17.67333 -62.93396 18685 ft 428 kts 154°
2026-04-20 17:48 17.64637 -62.92036 19187 ft 432 kts 154°
2026-04-20 17:48 17.61907 -62.90659 19689 ft 437 kts 155°
2026-04-20 17:48 17.59188 -62.89290 20185 ft 441 kts 155°
2026-04-20 17:49 17.56411 -62.87891 20686 ft 445 kts 155°
2026-04-20 17:49 17.53601 -62.86477 21189 ft 449 kts 155°
2026-04-20 17:49 17.50766 -62.85054 21690 ft 454 kts 155°
2026-04-20 17:49 17.47881 -62.83682 22192 ft 458 kts 157°
2026-04-20 17:50 17.44939 -62.82360 22694 ft 462 kts 158°
2026-04-20 17:50 17.41961 -62.81071 23195 ft 465 kts 159°
2026-04-20 17:50 17.38941 -62.79796 23698 ft 468 kts 159°
2026-04-20 17:50 17.35901 -62.78530 24199 ft 472 kts 160°
2026-04-20 17:51 17.32862 -62.77277 24646 ft 479 kts 160°
2026-04-20 17:51 17.29746 -62.75999 25037 ft 483 kts 160°
2026-04-20 17:51 17.26600 -62.74712 25416 ft 484 kts 160°
2026-04-20 17:51 17.23488 -62.73439 25790 ft 476 kts 160°
2026-04-20 17:52 17.20415 -62.72182 26163 ft 474 kts 160°
2026-04-20 17:52 17.17342 -62.70926 26538 ft 474 kts 159°
2026-04-20 17:52 17.14264 -62.69667 26913 ft 476 kts 159°
2026-04-20 17:52 17.11176 -62.68404 27289 ft 477 kts 159°
2026-04-20 17:53 17.08082 -62.67139 27664 ft 478 kts 159°
2026-04-20 17:53 17.04979 -62.65869 28040 ft 480 kts 159°
2026-04-20 17:53 17.01874 -62.64598 28414 ft 481 kts 159°
2026-04-20 17:53 16.98746 -62.63318 28791 ft 483 kts 159°
2026-04-20 17:54 16.95583 -62.62023 28930 ft 492 kts 159°
2026-04-20 17:54 16.89142 -62.59385 29061 ft 499 kts 159°
2026-04-20 17:55 16.82723 -62.56756 29065 ft 498 kts 159°
2026-04-20 17:55 16.76250 -62.54105 29063 ft 500 kts 159°
2026-04-20 17:56 16.69758 -62.51448 29059 ft 501 kts 159°
2026-04-20 17:56 16.63264 -62.48792 29057 ft 502 kts 159°
2026-04-20 17:57 16.56761 -62.46134 29056 ft 502 kts 159°
2026-04-20 17:57 16.50250 -62.43474 29054 ft 502 kts 159°
2026-04-20 17:58 16.43773 -62.40831 29053 ft 503 kts 159°
2026-04-20 17:58 16.37244 -62.38168 29052 ft 503 kts 159°
2026-04-20 17:59 16.30722 -62.35510 29051 ft 503 kts 159°
2026-04-20 17:59 16.24195 -62.32851 29052 ft 504 kts 159°
2026-04-20 18:00 16.17708 -62.30211 29057 ft 504 kts 159°
2026-04-20 18:00 16.11163 -62.27550 29057 ft 504 kts 159°
2026-04-20 18:01 16.04623 -62.24892 29057 ft 504 kts 159°
2026-04-20 18:01 15.98079 -62.22234 29046 ft 505 kts 159°
2026-04-20 18:02 15.91581 -62.19596 29041 ft 504 kts 159°
2026-04-20 18:02 15.85039 -62.16943 29039 ft 504 kts 159°
2026-04-20 18:03 15.78500 -62.14293 29033 ft 504 kts 159°
2026-04-20 18:03 15.71961 -62.11644 29019 ft 504 kts 159°
2026-04-20 18:04 15.65432 -62.09001 29016 ft 503 kts 159°
2026-04-20 18:04 15.58908 -62.06362 29013 ft 503 kts 159°
2026-04-20 18:05 15.49143 -62.02415 29020 ft 502 kts 159°
2026-04-20 18:05 15.42681 -61.99805 29021 ft 501 kts 159°
2026-04-20 18:06 15.36198 -61.97185 29020 ft 499 kts 160°
2026-04-20 18:06 15.29736 -61.94578 29010 ft 497 kts 160°
2026-04-20 18:07 15.23340 -61.91887 28999 ft 496 kts 157°
2026-04-20 18:07 15.17217 -61.88593 28998 ft 495 kts 152°
2026-04-20 18:08 15.11283 -61.84980 28997 ft 494 kts 150°
2026-04-20 18:08 15.05433 -61.81255 28996 ft 493 kts 150°
2026-04-20 18:09 14.99616 -61.77502 28996 ft 491 kts 150°
2026-04-20 18:09 14.93822 -61.73761 28996 ft 490 kts 151°
2026-04-20 18:10 14.88038 -61.70040 28996 ft 488 kts 151°
2026-04-20 18:10 14.82265 -61.66342 28995 ft 487 kts 151°
2026-04-20 18:11 14.76540 -61.62690 28995 ft 486 kts 152°
2026-04-20 18:11 14.70782 -61.59030 28995 ft 485 kts 152°
2026-04-20 18:12 14.67895 -61.57199 28726 ft 486 kts 152°
2026-04-20 18:12 14.65088 -61.55414 28339 ft 459 kts 152°
2026-04-20 18:12 14.62453 -61.53733 27892 ft 433 kts 152°
2026-04-20 18:12 14.59950 -61.52135 27397 ft 413 kts 152°
2026-04-20 18:13 14.57542 -61.50603 26893 ft 398 kts 152°
2026-04-20 18:13 14.55216 -61.49128 26390 ft 387 kts 152°
2026-04-20 18:13 14.52940 -61.47689 25887 ft 379 kts 152°
2026-04-20 18:13 14.50702 -61.46279 25385 ft 374 kts 152°
2026-04-20 18:14 14.48517 -61.44904 24889 ft 370 kts 151°
2026-04-20 18:14 14.46326 -61.43529 24388 ft 367 kts 151°
2026-04-20 18:14 14.44147 -61.42161 23885 ft 365 kts 150°
2026-04-20 18:14 14.41988 -61.40806 23385 ft 362 kts 150°
2026-04-20 18:15 14.39839 -61.39459 22884 ft 359 kts 149°
2026-04-20 18:15 14.37707 -61.38119 22382 ft 356 kts 149°
2026-04-20 18:15 14.35595 -61.36791 21880 ft 353 kts 149°
2026-04-20 18:15 14.33510 -61.35480 21380 ft 349 kts 149°
2026-04-20 18:16 14.31449 -61.34183 20880 ft 345 kts 149°
2026-04-20 18:16 14.29408 -61.32898 20379 ft 341 kts 149°
2026-04-20 18:16 14.27387 -61.31646 19877 ft 337 kts 152°
2026-04-20 18:16 14.25307 -61.30582 19392 ft 330 kts 157°
2026-04-20 18:17 14.23228 -61.29652 18908 ft 323 kts 159°
2026-04-20 18:17 14.21187 -61.28789 18413 ft 319 kts 159°
2026-04-20 18:17 14.19131 -61.27940 17913 ft 316 kts 160°
2026-04-20 18:17 14.17098 -61.27108 17413 ft 313 kts 160°
2026-04-20 18:18 14.15079 -61.26287 16913 ft 310 kts 160°
2026-04-20 18:18 14.13079 -61.25477 16422 ft 307 kts 160°
2026-04-20 18:18 14.11109 -61.24679 15966 ft 300 kts 160°
2026-04-20 18:18 14.09187 -61.23902 15513 ft 293 kts 160°
2026-04-20 18:19 14.07309 -61.23146 15061 ft 287 kts 160°
2026-04-20 18:19 14.05463 -61.22404 14609 ft 282 kts 160°
2026-04-20 18:19 14.03645 -61.21677 14158 ft 278 kts 160°
2026-04-20 18:19 14.01854 -61.20963 13719 ft 271 kts 160°
2026-04-20 18:20 14.00131 -61.20279 13221 ft 259 kts 160°
2026-04-20 18:20 13.98502 -61.19634 12724 ft 250 kts 160°
2026-04-20 18:20 13.96902 -61.19003 12219 ft 242 kts 160°
2026-04-20 18:20 13.95350 -61.18393 11718 ft 236 kts 160°
2026-04-20 18:21 13.93833 -61.17804 11214 ft 231 kts 160°
2026-04-20 18:21 13.92339 -61.17235 10712 ft 226 kts 160°
2026-04-20 18:21 13.90865 -61.16682 10205 ft 223 kts 160°
2026-04-20 18:21 13.89415 -61.16149 9704 ft 220 kts 159°
2026-04-20 18:22 13.87975 -61.15636 9204 ft 218 kts 159°
2026-04-20 18:22 13.86546 -61.15147 8706 ft 215 kts 160°
2026-04-20 18:22 13.85129 -61.14675 8206 ft 212 kts 160°
2026-04-20 18:22 13.83731 -61.14216 7714 ft 210 kts 160°
2026-04-20 18:23 13.82370 -61.13776 7245 ft 207 kts 160°
2026-04-20 18:23 13.81001 -61.13338 6767 ft 204 kts 160°
2026-04-20 18:23 13.79649 -61.12910 6290 ft 202 kts 160°
2026-04-20 18:23 13.78313 -61.12494 5813 ft 200 kts 160°
2026-04-20 18:24 13.77021 -61.12097 5416 ft 183 kts 160°
2026-04-20 18:24 13.75818 -61.11739 4907 ft 178 kts 160°
2026-04-20 18:24 13.74634 -61.11392 4406 ft 176 kts 160°
2026-04-20 18:24 13.73461 -61.11051 3904 ft 174 kts 160°
2026-04-20 18:25 13.72466 -61.10416 3344 ft 169 kts 130°
2026-04-20 18:25 13.72100 -61.09304 2856 ft 167 kts 93°
2026-04-20 18:25 13.72452 -61.08199 2417 ft 165 kts 64°
2026-04-20 18:25 13.72883 -61.07113 1912 ft 163 kts 72°
2026-04-20 18:26 13.73030 -61.05979 1432 ft 157 kts 87°
2026-04-20 18:26 13.73007 -61.04917 1314 ft 143 kts 91°
2026-04-20 18:26 13.73013 -61.03914 1295 ft 138 kts 88°
2026-04-20 18:26 13.73068 -61.02930 1297 ft 136 kts 86°
2026-04-20 18:27 13.73079 -61.01964 1211 ft 132 kts 91°
2026-04-20 18:27 13.73077 -61.01059 1051 ft 131 kts 88°
2026-04-20 18:27 13.73124 -61.00140 969 ft 123 kts 83°
2026-04-20 18:27 13.73202 -60.99272 759 ft 121 kts 84°
2026-04-20 18:28 13.73280 -60.98423 536 ft 116 kts 84°
2026-04-20 18:28 13.73315 -60.97600 309 ft 114 kts 87°
2026-04-20 18:28 13.73325 -60.96791 128 ft 112 kts 87°
2026-04-20 18:28 13.73323 -60.96027 26 ft 97 kts 86°
2026-04-20 18:29 13.73330 -60.95576 24 ft 30 kts 91°
2026-04-20 18:29 13.73327 -60.95435 24 ft 14 kts 91°
2026-04-20 18:29 13.73332 -60.95371 24 ft 8 kts 88°
2026-04-20 18:29 13.73334 -60.95294 24 ft 10 kts 90°
2026-04-20 18:30 13.73332 -60.95188 24 ft 17 kts 91°
2026-04-20 18:30 13.73361 -60.95115 24 ft 12 kts 13°
2026-04-20 18:30 13.73431 -60.95106 24 ft 7 kts 15°
2026-04-20 18:30 13.73482 -60.95063 24 ft 14 kts 63°
2026-04-20 18:31 13.73522 -60.95031 24 ft 4 kts
2026-04-20 18:31 13.73546 -60.95029 24 ft 3 kts
2026-04-20 18:31 13.73572 -60.95029 24 ft 0 kts 359°